EW8704 Weather Reports


time (UTC)temp
C
wind
direction
speed
KPH
gust
KPH
rain 1hr
cm
rain 24hr
cm
rain mn
cm
humidity
%
barometer
mb
20260507104534 1 231 3.2 6.4 0.00 0.00 0.00 74 1013.8
20260507103014 1 220 3.2 6.4 0.00 0.00 0.00 74 1013.8
20260507101511 1 236 1.6 6.4 0.00 0.00 0.00 73 1013.7
20260507100043 1 207 4.8 8.0 0.00 0.00 0.00 72 1013.7
20260507094546 2 209 4.8 8.0 0.00 0.00 0.00 71 1013.8
20260507093009 2 220 4.8 9.7 0.00 0.00 0.00 70 1013.9
20260507091506 2 201 4.8 8.0 0.00 0.00 0.00 69 1013.9
20260507090037 2 209 4.8 9.7 0.00 0.00 0.00 68 1013.9
20260507084543 3 204 4.8 8.0 0.00 0.00 0.00 67 1014.0
20260507083005 3 214 3.2 8.0 0.00 0.00 0.00 67 1014.1
20260507081518 3 216 4.8 8.0 0.00 0.00 0.00 66 1014.1
20260507080045 3 217 4.8 11.3 0.00 0.00 0.00 66 1014.2
20260507074541 3 225 4.8 8.0 0.00 0.00 0.00 66 1014.2
20260507073010 3 207 4.8 8.0 0.00 0.00 0.00 66 1014.3
20260507071503 3 214 1.6 4.8 0.00 0.00 0.00 66 1014.4
20260507070035 3 214 3.2 4.8 0.00 0.00 0.00 66 1014.5
20260507064532 3 221 3.2 8.0 0.00 0.00 0.00 66 1014.7
20260507063004 3 196 3.2 6.4 0.00 0.00 0.00 65 1014.7
20260507061504 3 205 3.2 8.0 0.00 0.00 0.00 65 1014.8
20260507060028 3 205 4.8 8.0 0.00 0.00 0.00 67 1014.9
20260507054514 3 185 1.6 4.8 0.00 0.00 0.00 66 1015.0
20260507053052 3 192 0.0 4.8 0.00 0.00 0.00 62 1015.0
20260507051542 3 194 3.2 8.0 0.00 0.00 0.00 63 1015.2
20260507050128 3 192 3.2 6.4 0.00 0.00 0.00 63 1015.3
20260507044551 3 189 3.2 4.8 0.00 0.00 0.00 62 1015.4
20260507043017 3 196 3.2 6.4 0.00 0.00 0.00 62 1015.4
20260507041519 3 173 3.2 6.4 0.00 0.00 0.00 62 1015.5
20260507040058 3 186 3.2 6.4 0.00 0.00 0.00 62 1015.6
20260507034612 3 200 3.2 4.8 0.00 0.00 0.00 61 1015.8
20260507033031 4 235 1.6 4.8 0.00 0.00 0.00 60 1015.9
20260507031525 4 242 1.6 6.4 0.00 0.00 0.00 59 1016.0
20260507030003 4 260 1.6 4.8 0.00 0.00 0.00 58 1016.1
20260507024503 4 279 3.2 6.4 0.00 0.00 0.00 57 1016.2
20260507023044 4 245 1.6 9.7 0.00 0.00 0.00 57 1016.1
20260507021548 5 273 3.2 11.3 0.00 0.00 0.00 56 1016.1
20260507020032 5 255 4.8 11.3 0.00 0.00 0.00 56 1015.9
20260507014528 5 311 4.8 14.5 0.00 0.00 0.00 55 1015.9
20260507013005 5 267 3.2 9.7 0.00 0.00 0.00 57 1015.8
20260507011557 5 258 3.2 12.9 0.00 0.00 0.00 56 1015.8
20260507010030 5 281 3.2 12.9 0.00 0.00 0.00 56 1015.7
20260507004534 5 296 3.2 14.5 0.00 0.00 0.00 55 1015.8
20260507003015 5 267 6.4 11.3 0.00 0.00 0.00 54 1015.8
20260507001522 5 246 11.3 22.5 0.00 0.00 0.00 54 1015.7
20260507000053 5 312 9.7 20.9 0.00 0.00 0.00 55 1015.7
20260506234525 5 340 11.3 20.9 0.00 0.00 0.00 56 1015.8
20260506233003 5 254 8.0 22.5 0.00 0.00 0.00 56 1015.8
20260506231559 5 315 9.7 19.3 0.00 0.00 0.00 56 1015.8
20260506231502 5 275 9.7 19.3 0.00 0.00 0.00 57 1015.8
20260506230151 5 229 11.3 24.1 0.00 0.00 0.00 55 1015.9
20260506224527 5 254 9.7 20.9 0.00 0.00 0.00 56 1016.0
20260506223005 5 274 12.9 20.9 0.00 0.00 0.00 56 1016.1
20260506221504 5 296 9.7 25.7 0.00 0.00 0.00 55 1016.1
20260506220038 5 266 9.7 19.3 0.00 0.00 0.00 56 1016.0
20260506214551 5 265 12.9 22.5 0.00 0.00 0.00 57 1015.8
20260506213011 5 279 14.5 22.5 0.00 0.00 0.00 55 1015.8
20260506211558 5 251 9.7 24.1 0.00 0.00 0.00 57 1015.8
20260506210039 5 255 12.9 20.9 0.00 0.00 0.00 58 1016.0
20260506204523 6 263 14.5 22.5 0.00 0.00 0.00 56 1016.0
20260506203009 6 269 11.3 20.9 0.00 0.00 0.00 56 1016.0
20260506201509 5 290 16.1 25.7 0.00 0.00 0.00 54 1016.1
20260506200044 6 294 17.7 24.1 0.00 0.00 0.00 53 1016.2
20260506194558 6 319 11.3 19.3 0.00 0.00 0.00 53 1016.1
20260506193016 5 319 8.0 25.7 0.00 0.00 0.00 52 1016.2
20260506191521 6 271 11.3 20.9 0.00 0.00 0.00 54 1016.2
20260506190004 5 288 16.1 24.1 0.00 0.00 0.00 53 1016.1
20260506184559 5 242 8.0 20.9 0.00 0.00 0.00 55 1016.2
20260506184502 5 277 9.7 22.5 0.00 0.00 0.00 52 1016.1
20260506183031 5 288 6.4 20.9 0.00 0.00 0.00 55 1016.1
20260506181541 5 315 12.9 24.1 0.00 0.00 0.00 53 1016.2
20260506180006 5 228 9.7 19.3 0.00 0.00 0.00 56 1016.2
20260506174602 5 317 12.9 27.4 0.00 0.00 0.00 52 1016.4
20260506174501 5 270 14.5 27.4 0.00 0.00 0.00 52 1016.4
20260506173034 5 236 6.4 14.5 0.00 0.00 0.00 54 1016.4
20260506171551 5 271 14.5 24.1 0.00 0.00 0.00 54 1016.5
20260506170008 5 254 9.7 19.3 0.00 0.00 0.00 54 1016.5
20260506164515 5 310 14.5 25.7 0.00 0.00 0.00 54 1016.5
20260506163048 5 290 11.3 25.7 0.00 0.00 0.00 54 1016.5
20260506161543 5 242 12.9 29.0 0.00 0.00 0.00 55 1016.5
20260506160015 5 273 8.0 24.1 0.00 0.00 0.00 55 1016.6
20260506154502 4 268 12.9 24.1 0.00 0.00 0.00 54 1016.5
20260506153033 4 299 14.5 22.5 0.00 0.00 0.00 56 1016.5
20260506151529 3 307 12.9 19.3 0.00 0.00 0.00 58 1016.5
20260506150100 3 273 11.3 22.5 0.00 0.00 0.00 59 1016.5
20260506144559 3 261 11.3 20.9 0.00 0.00 0.00 59 1016.3
20260506143018 3 280 11.3 16.1 0.00 0.00 0.00 58 1016.3
20260506141505 3 276 12.9 19.3 0.00 0.00 0.00 61 1016.2
20260506140029 3 304 12.9 20.9 0.00 0.00 0.00 62 1016.1
20260506134523 3 250 8.0 17.7 0.00 0.00 0.00 64 1015.8
20260506133053 2 313 4.8 11.3 0.00 0.00 0.00 64 1015.8
20260506131545 2 268 4.8 9.7 0.00 0.00 0.00 71 1016.0
20260506130014 1 313 4.8 8.0 0.00 0.00 0.00 71 1015.8
20260506124557 1 296 3.2 6.4 0.00 0.00 0.00 72 1015.5
20260506123023 1 278 3.2 6.4 0.00 0.00 0.00 74 1015.4
20260506121516 0 275 3.2 6.4 0.00 0.00 0.00 75 1015.4
20260506120047 0 280 1.6 6.4 0.00 0.00 0.00 76 1015.3
20260506114541 0 322 0.0 4.8 0.00 0.00 0.00 78 1015.2
20260506113006 -1 255 0.0 4.8 0.00 0.00 0.00 79 1015.0
20260506111604 -1 278 0.0 1.6 0.00 0.00 0.00 78 1014.6
20260506110014 -1 311 0.0 1.6 0.00 0.00 0.00 77 1014.2